STARLINK-2004 (47599 NORAD) Tracking and Keplerian Element Data

This shows tracking and keplerian element data for the satellite.

Feedback or suggestion? Click here.




ElementValue
Catalog47599
NameSTARLINK-2004
Epoch Orbit454
Epoch Day60.16668981
Epoch Year2021
RAAN1.7003
Inclination53.0542
Eccentricity0.0001169
Argument of Perigee57.3936
Mean Anonmoly265.1505
Mean Motion15.62742058
Decay Rate0.00011969
L11 47599U 21009BD 21060.16668981 .00011969 00000-0 13641-3 0 9994
L22 47599 53.0542 1.7003 0001169 57.3936 265.1505 15.62742058 4543

Live tracking and technical data element details for STARLINK-2004 (NORAD 47599). STARLINK-2004 can be tracked NOW for your location showing map with azimuth and elevation plus other details from your city location.

Track the satellite on the map from your city or location and see movement details for azimuth, elevation, latitude, longitude, range, height, and movement on the map or in text.







IsCatalogInMostPopularTable: catalog: 47599, numindb: 4
Update: records affected: 1



GetName: 47599 STARLINK-2004

Hit Count: updated at: Mon, 01 Mar 2021 16:04:11 GMT